Regional Weather Roundup
Issued by NWS San Diego, CA

Home | Current Version | Previous Version | Text Only | Print | Product List | Glossary On
Versions: 1 2 3 4 5 6 7 8 9 10 11 12 13 14 15 16 17 18 19 20 21 22 23 24 25 26 27
000
ASUS46 KSGX 031111
RWRSGX

SAN DIEGO HOURLY WEATHER ROUNDUP
NATIONAL WEATHER SERVICE SAN DIEGO CA
400 AM PDT TUE AUG 03 2021

NOTE: "FAIR" INDICATES FEW OR NO CLOUDS BELOW 12,000 FEET WITH NO
SIGNIFICANT WEATHER AND/OR OBSTRUCTIONS TO VISIBILITY.

CAZ042-043-060-061-PZZ750-775-031200-

GREATER SAN DIEGO AREA

CITY           SKY/WX    TMP DP  RH WIND       PRES   REMARKS
SAN DIEGO AP   CLEAR     67  61  81 CALM      29.97S
BROWN FIELD    CLEAR     64  56  75 CALM      29.96S
MIRAMAR MCAS   CLEAR     59  53  80 NE3       29.96S
MONTGOMERY FLD CLEAR     66  60  81 N3        29.96S
GILLESPIE FLD  FAIR      64  48  55 CALM      29.96R
LEMON GROVE      N/A     66  59  79 CALM      29.92S

$$

NORTH SAN DIEGO COUNTY

CITY           SKY/WX    TMP DP  RH WIND       PRES   REMARKS
CAMP PENDLETON CLEAR     60  52  74 NE3       29.96S
OCEANSIDE AP   CLEAR     58  56  93 CALM      29.95S
OCEANSIDE HBR    N/A     61  59  93 N3        30.02S
VISTA            N/A     60  55  84 CALM      29.93S
CARLSBAD       CLEAR     64  59  83 CALM      29.95S
ENCINITAS        N/A     62  60  93 CALM        N/A
LA JOLLA SCRIP   N/A     65  61  88 CALM      29.95S
FALLBROOK      FAIR      61  54  77 CALM      29.97S
ESCONDIDO        N/A     68  54  60 CALM      29.94R
SAN MARCOS       N/A     63  53  68 CALM      29.97S
RANCHO BERNARD   N/A     64  57  78 CALM      29.94R
POWAY            N/A     61  51  68 CALM      29.96S

$$

EAST SAN DIEGO COUNTY

CITY           SKY/WX    TMP DP  RH WIND       PRES   REMARKS
RAMONA         CLEAR     55  41  59 CALM      29.99S
LA MESA          N/A     65  57  76 CALM      29.88F

$$

ORANGE COUNTY AND THE LOS ANGELES BASIN

CITY           SKY/WX    TMP DP  RH WIND       PRES   REMARKS
JOHN WAYNE AP  CLEAR     67  60  78 SW3       29.95R
LAGUNA BEACH     N/A     59  54  84 CALM      29.95R
LAKE FOREST FR   N/A     69  42  38 CALM      29.79S
HUNTINGTON BCH   N/A     64  62  94 CALM      29.94S
LOS ALAMITOS   FAIR      62  62 100 CALM      29.95R
FULLERTON      CLEAR     68  60  75 CALM      29.94R
LONG BEACH     CLEAR     66  58  75 E3        29.95R
L.A. AP        CLEAR     63  60  90 VRB3      29.95R
L.A. DOWNTOWN  CLEAR     67  58  72 CALM      29.94S

$$

THE INLAND EMPIRE

CITY           SKY/WX    TMP DP  RH WIND       PRES   REMARKS
CORONA         CLEAR     62  51  67 CALM      29.96S
UPLAND AP      FAIR      73  37  27 CALM      29.98S
CHINO          CLEAR     66  50  56 CALM      29.97R
ONTARIO        CLEAR     74  46  36 CALM      29.96S
SAN BERNARDINO FAIR      72  42  33 CALM      29.97S
RIVERSIDE AP   CLEAR     69  43  38 CALM      29.96S
MORENO VALLEY    N/A     74  34  23 CALM      29.92S
MARCH ARB      CLEAR     62  33  33 CALM      29.98S
HORSETHIEF CYN   N/A     72  28  19 S2        29.90F
PERRIS           N/A     71  32  23 CALM      29.97S
LAKE ELSINORE    N/A     66  43  42 CALM      29.85S
HEMET AP       FAIR      67  38  34 CALM      29.99S
FRENCH VALLEY  FAIR      68  46  45 CALM      29.99S
TEMECULA         N/A     68  52  56 CALM      29.95S

$$

SAN BERNARDINO AND RIVERSIDE COUNTY MOUNTAINS

CITY           SKY/WX    TMP DP  RH WIND       PRES   REMARKS
BIG BEAR AP    CLEAR     46  37  71 CALM      30.39S
BIG BEAR LAKE    N/A     53  38  56 S1        29.97S
WRIGHTWOOD       N/A     66  33  29 CALM      29.82S
ANGELUS OAKS     N/A     66  39  36 CALM      29.82S
IDYLLWILD        N/A     60  47  61 CALM      29.84S

$$

SOUTHERN DESERT INCLUDING THE COACHELLA VALLEY

CITY           SKY/WX    TMP DP  RH WIND       PRES   REMARKS
PALM SPRINGS   CLEAR     88  46  23 SW3       29.85S
THOUSAND PALMS   N/A     96  31  10 W9        29.76S
INDIO            N/A     94  34  12 W7        29.78S
THERMAL        CLEAR     96  30   9 NW12      29.77S
BORREGO AP     FAIR      79  28  15 W3        29.84R
OCOTILLO WELLS   N/A     94  32  11 CALM      29.73R
CANEBRAKE        N/A     92  30  11 CALM      29.74S
IMPERIAL AP    CLEAR     81  46  29 SW6       29.78S
EL CENTRO NAS  CLEAR     87  34  15 SW9       29.80S
YUMA AZ        CLEAR     88  59  37 S5        29.80S

$$

UPPER DESERT

CITY           SKY/WX    TMP DP  RH WIND       PRES   REMARKS
HESPERIA         N/A     74  28  18 SW3       29.71R
APPLE VALLEY     N/A     56  47  72 CALM      29.96R
PALMDALE       CLEAR     73  28  18 S6        30.05S
LANCASTER      CLEAR     68  31  25 CALM      30.03S
EDWARDS AFB    CLEAR     72  32  23 SW6       30.00S
GRAY BUTTE AP  FAIR      70  30  22 S6        30.05S
DAGGETT        CLEAR     81  32  17 W12       29.99S
29 PALMS N     CLEAR     86  29  12 W8        30.04S
29 PALMS JTNP    N/A     85  41  20 CALM      29.78R
NEEDLES        CLEAR     92  51  24 CALM      29.85R

$$

REGIONAL REPORTS

CITY           SKY/WX    TMP DP  RH WIND       PRES   REMARKS
SANTA BARBARA  CLEAR     60  55  83 CALM      29.93S
SANDBERG       CLEAR     78  32  18 NW8       30.19S
LAS VEGAS NV   PTCLDY    88  52  29 CALM      29.98R
PHOENIX AZ     CLEAR     91  62  37 SE5       29.86S
TIJUANA        CLEAR     66  61  82 CALM      29.99S
ENSENADA NW      N/A     66  32  28 N1        29.91S

$$

OFFSHORE ISLANDS

CITY           SKY/WX    TMP DP  RH WIND       PRES   REMARKS
CATALINA ARPT  NOT AVBL
SAN CLEMENTE I PTCLDY    63  60  90 W13       29.99R
SAN NICOLAS IS CLEAR     59  53  80 NW15      29.96S

$$

MARINE AND OFFSHORE BUOY REPORTS

STATION/POSITION SKY/WX   TEMP    WIND        PRES    VSBY  SWELL
                          AIR SEA DIR/SP/G                  HT/PER/DIR
                          (F)     (DEG/KT/KT) (MB)    (MI)  (FT/S/D)
TANNER BANKS               62 66  310/ 17/ 21 1015.0S         3/190/16
S CLEMENTE BASIN           67 70  300/ 12/ 16 1014.1S         5/160/16
SAN NICOLAS IS.               63                N/A           3/200/17
SO. S. ROSA ISLA           58                   N/A
W. S. BARBARA CH           57 56  320/ 21/ 25 1014.6F         2/210/17
M. S. BARBARA CH           62 63  290/  8/ 12 1014.0R         2/260/ 8
S. MONICA BASIN            65 68  300/  4/  6 1014.1R         5/260/ 7
OCEANSIDE OFFSHR              65                N/A           2/200/17
TORREY PINES OTR              67                N/A           2/190/17
SAN DIEGO BAY                 71              1014.3
IMPERIAL BEACH                60                N/A           2/230/17
POINT LOMA SOUTH              68                N/A           3/180/17

$$




USA.gov is the U.S. government's official web portal to all federal, state and local government web resources and services.